Terug naar catalogus

CZ-3C DEB

ActiefGTO
NORAD 39352·DEBRIS·🇨🇳 China

Gelanceerd Oct 31, 2010 vanaf Xichang Satellite Launch Center

Loading…

TLE

VerouderdSource: Space-Track

Epoch: Sep 13, 2026, 19:27 UTC

1 39352U 10057S   26256.81067962  .00000224  00000-0  56145-2 0  9996
2 39352  20.3867 127.4355 7207672  87.1214 358.8848  2.18287219102952

Volg CZ-3C DEB in realtime met AllMySat

Download on the App Store